Location: Biltmore Gardens
(41.6070°N, 83.4666°W)
Time: 15:10:12
(UTC+00:00)

Cosmos-2242 - Pass Details

Date: 14 July 2020
Orbit: 592 x 616 km, 82.5° (Epoch: 13 August)

Event Time Altitude Azimuth Distance (km) Brightness Sun altitude
Rises 01:43:28 0° 351° (N) 2,884 7.2 -6.5°
Reaches altitude 10° 01:45:42 10° 352° (N) 1,978 6.4 -6.8°
Maximum altitude 01:50:05 88° 268° (W) 621 3.1 -7.4°
Drops below altitude 10° 01:54:28 10° 174° (S) 1,970 5.2 -8.1°
Enters shadow 01:56:25 - 174° (S) 2,767 6.0 -8.4°
